| time (UTC) | temp C | wind direction | speed KPH | gust KPH | rain 1hr cm | rain 24hr cm | rain mn cm | humidity % | barometer mb |
| 20260504023059 | 16 | 208 | 6.4 | 16.1 | 0.00 | 0.00 | 0.00 | 61 | 1008.8 |
| 20260504021559 | 16 | 198 | 9.7 | 19.3 | 0.00 | 0.00 | 0.00 | 60 | 1008.8 |
| 20260504020124 | 16 | 219 | 11.3 | 24.1 | 0.00 | 0.00 | 0.00 | 59 | 1008.6 |
| 20260504014601 | 16 | 245 | 8.0 | 17.7 | 0.00 | 0.00 | 0.00 | 59 | 1008.5 |
| 20260504013118 | 16 | 179 | 6.4 | 17.7 | 0.00 | 0.00 | 0.00 | 58 | 1008.3 |
| 20260504011556 | 17 | 217 | 9.7 | 22.5 | 0.00 | 0.00 | 0.00 | 57 | 1008.1 |
| 20260504010057 | 17 | 184 | 9.7 | 20.9 | 0.00 | 0.00 | 0.00 | 56 | 1008.0 |
| 20260504004554 | 17 | 203 | 11.3 | 17.7 | 0.00 | 0.00 | 0.00 | 53 | 1008.1 |
| 20260504003054 | 17 | 213 | 11.3 | 22.5 | 0.00 | 0.00 | 0.00 | 52 | 1008.1 |
| 20260504001554 | 18 | 208 | 9.7 | 19.3 | 0.00 | 0.00 | 0.00 | 51 | 1008.0 |
| 20260504000052 | 18 | 209 | 11.3 | 25.7 | 0.00 | 0.00 | 0.00 | 50 | 1008.2 |
| 20260503234550 | 18 | 213 | 12.9 | 22.5 | 0.00 | 0.00 | 0.00 | 50 | 1008.2 |
| 20260503233049 | 18 | 197 | 14.5 | 27.4 | 0.00 | 0.00 | 0.00 | 49 | 1008.3 |
| 20260503231548 | 18 | 213 | 11.3 | 29.0 | 0.00 | 0.00 | 0.00 | 50 | 1008.3 |
| 20260503230051 | 18 | 226 | 16.1 | 27.4 | 0.00 | 0.00 | 0.00 | 49 | 1008.5 |
| 20260503224547 | 18 | 207 | 17.7 | 27.4 | 0.00 | 0.00 | 0.00 | 49 | 1008.7 |
| 20260503223044 | 18 | 204 | 11.3 | 22.5 | 0.00 | 0.00 | 0.00 | 49 | 1008.8 |
| 20260503221556 | 18 | 211 | 14.5 | 27.4 | 0.00 | 0.00 | 0.00 | 49 | 1008.7 |
| 20260503220040 | 17 | 173 | 17.7 | 30.6 | 0.00 | 0.00 | 0.00 | 50 | 1008.5 |
| 20260503214541 | 17 | 209 | 14.5 | 27.4 | 0.00 | 0.00 | 0.00 | 51 | 1008.9 |
| 20260503213042 | 17 | 189 | 16.1 | 32.2 | 0.00 | 0.00 | 0.00 | 53 | 1008.9 |
| 20260503211534 | 17 | 229 | 17.7 | 30.6 | 0.00 | 0.00 | 0.00 | 52 | 1009.1 |
| 20260503210032 | 17 | 219 | 19.3 | 30.6 | 0.00 | 0.00 | 0.00 | 53 | 1009.6 |
| 20260503204531 | 17 | 221 | 16.1 | 27.4 | 0.00 | 0.00 | 0.00 | 53 | 1009.9 |
| 20260503203035 | 17 | 209 | 19.3 | 32.2 | 0.00 | 0.00 | 0.00 | 53 | 1009.9 |
| 20260503201529 | 16 | 232 | 20.9 | 29.0 | 0.00 | 0.00 | 0.00 | 52 | 1010.0 |
| 20260503200027 | 16 | 173 | 19.3 | 32.2 | 0.00 | 0.00 | 0.00 | 51 | 1010.6 |
| 20260503194523 | 16 | 205 | 17.7 | 30.6 | 0.00 | 0.00 | 0.00 | 50 | 1011.0 |
| 20260503193124 | 17 | 218 | 17.7 | 32.2 | 0.00 | 0.00 | 0.00 | 48 | 1011.5 |
| 20260503191538 | 16 | 192 | 22.5 | 30.6 | 0.00 | 0.00 | 0.00 | 49 | 1011.8 |
| 20260503190025 | 16 | 219 | 16.1 | 27.4 | 0.00 | 0.00 | 0.00 | 48 | 1012.5 |
| 20260503184513 | 15 | 219 | 17.7 | 27.4 | 0.00 | 0.00 | 0.00 | 49 | 1013.3 |
| 20260503183010 | 16 | 211 | 17.7 | 29.0 | 0.00 | 0.00 | 0.00 | 48 | 1013.4 |
| 20260503181510 | 16 | 225 | 16.1 | 27.4 | 0.00 | 0.00 | 0.00 | 47 | 1013.6 |
| 20260503180010 | 16 | 213 | 19.3 | 29.0 | 0.00 | 0.00 | 0.00 | 46 | 1013.8 |
| 20260503174508 | 16 | 198 | 20.9 | 27.4 | 0.00 | 0.00 | 0.00 | 46 | 1013.6 |
| 20260503173005 | 16 | 214 | 17.7 | 29.0 | 0.00 | 0.00 | 0.00 | 48 | 1014.1 |
| 20260503171502 | 16 | 188 | 12.9 | 22.5 | 0.00 | 0.00 | 0.00 | 48 | 1014.4 |
| 20260503170118 | 16 | 210 | 12.9 | 27.4 | 0.00 | 0.00 | 0.00 | 50 | 1014.5 |
| 20260503160105 | 15 | 219 | 16.1 | 27.4 | 0.00 | 0.00 | 0.00 | 53 | 1015.9 |
| 20260503081555 | 7 | 215 | 8.0 | 12.9 | 0.00 | 0.00 | 0.00 | 60 | 1017.5 |
| 20260503080103 | 7 | 215 | 6.4 | 12.9 | 0.00 | 0.00 | 0.00 | 60 | 1017.5 |
| 20260503071603 | 7 | 213 | 6.4 | 11.3 | 0.00 | 0.00 | 0.00 | 58 | 1017.7 |
| 20260503060140 | 8 | 211 | 3.2 | 11.3 | 0.00 | 0.00 | 0.00 | 54 | 1018.1 |
| 20260503054557 | 8 | 261 | 4.8 | 6.4 | 0.00 | 0.00 | 0.00 | 54 | 1018.1 |
| 20260503053038 | 8 | 273 | 3.2 | 6.4 | 0.00 | 0.00 | 0.00 | 54 | 1018.1 |
| 20260503051535 | 8 | 286 | 1.6 | 6.4 | 0.00 | 0.00 | 0.00 | 56 | 1018.2 |
| 20260503050034 | 8 | 321 | 1.6 | 6.4 | 0.00 | 0.00 | 0.00 | 56 | 1018.2 |
| 20260503044539 | 8 | 335 | 1.6 | 4.8 | 0.00 | 0.00 | 0.00 | 57 | 1018.2 |
| 20260503043041 | 8 | 337 | 0.0 | 4.8 | 0.00 | 0.00 | 0.00 | 56 | 1018.2 |
| 20260503041531 | 7 | 339 | 0.0 | 0.0 | 0.00 | 0.00 | 0.00 | 58 | 1018.2 |
| 20260503040033 | 7 | 339 | 0.0 | 0.0 | 0.00 | 0.00 | 0.00 | 58 | 1018.2 |
| 20260503034530 | 7 | 339 | 0.0 | 0.0 | 0.00 | 0.00 | 0.00 | 60 | 1018.3 |
| 20260503033029 | 7 | 339 | 0.0 | 0.0 | 0.00 | 0.00 | 0.00 | 61 | 1018.3 |
| 20260503031529 | 7 | 339 | 0.0 | 0.0 | 0.00 | 0.00 | 0.00 | 60 | 1018.5 |